STARLINK-2565, 48280

Orbit data source: Space-Track

STARLINK-2565, 48280 is a payload satellite owned by SpaceX/Seattle (US) in LEO that was launched on Thu, 29 Apr 2021 UTC via an FALCON 9 launch vehicle from the Air Force Eastern Test Range (AFETR). Payload-class satellites include a variety of spacecraft equipped with specific instruments for various scientific and technological missions. These include communications satellites like Starlink; space stations such as the ISS; scientific satellites like the Hubble; Earth observation satellites from companies like Planet Labs, Umbra, and HawkEye 360; GPS; miniature CubeSats for education and research; and military/defense satellites.

Loading next visibility...
Identifier
48280, 2021-036E
Orbit
LEO
Country
Flag of USUS
Related business
Manufacturer
SpaceX/Seattle
Mission
Operational Commercial Communications
Bus & Motor
STARLINK, Unknown motor
Mass
260 kg wet, ~248 kg dry
Launch date (UTC)
2021-04-29 (4 years ago)
Launch vehicle
FALCON 9
Launch site
Air Force Eastern Test Range (AFETR)
Object type
Payload
Rocket body
Debris
Shape & HBR
Box + 1 Pan, 10.1 m
Radar Cross Section
13.562 m², Large (>1 m²)

Expand to show TLE details & history
Last TLE update: 7 hours ago

TLE from 7 hours ago
0 STARLINK-2565
1 48280U 21036E   25291.25167750 -.00000369  00000-0 -58979-5 0  9999
2 48280  53.0537  16.0411 0001456 103.6119 256.5032 15.06399665246631
Epoch: 2025-10-18T06:02Z
TLE epoch observation values (Epoch: 2025-10-18T06:02:24.936Z)
Latitude
-0.00001°
Longitude
-101.54818°
Altitude
548.327 km
Speed
7.589 km/s
True Right ascension
01h 04m 09s
True Declination
0° 00' 00"
Sunlit
Object was in full shadow at epoch
Visualization orbit readout
Latitude
Unknown
Longitude
Unknown
Altitude
Unknown
Speed
Unknown
Apparent Right ascension
Unknown
Apparent Declination
Unknown
Sunlit
N/A
Visualization observer readout
Local Sidereal Time
07:43:31
Azimuth
Unknown
Elevation
Unknown
Doppler factor
Unknown
Orbital elements
Apogee altitude
548.492 km
Perigee altitude
546.475 km
Semi-major axis
6,925.62 km
Eccentricity
0.00015
Inclination
53.0537°
RAAN
16.0411°
Arg. of periapsis
103.6119°
True anomaly
256.48698°
Mean anomaly
256.5032°
Eccentric anomaly
256.49509°
Mean motion
3.76578 °/min
Orbital period
95.6 mins
BSTAR
-0.0000058979
Loading maneuver chart data...
Computing Atmospheric mass density...
Loading historical data...
Loading historical data...
Loading historical data...
Loading historical data...
Loading historical data...
Loading historical data...
Loading historical data...

Documentation

Showing up to 5 results
|